| time (UTC) | temp F | wind direction | speed MPH | gust MPH | rain 1hr in | rain 24hr in | rain mn in | humidity % | barometer mb |
| 20260510065735 | 60 | 40 | 0.0 | 0.0 | 0.00 | 0.14 | 0.10 | 87 | 1009.3 |
| 20260510065235 | 60 | 40 | 0.0 | 0.0 | 0.00 | 0.14 | 0.10 | 87 | 1009.3 |
| 20260510064735 | 60 | 40 | 0.0 | 0.0 | 0.00 | 0.14 | 0.10 | 87 | 1009.3 |
| 20260510064235 | 60 | 40 | 0.0 | 0.0 | 0.00 | 0.14 | 0.10 | 87 | 1009.3 |
| 20260510063734 | 60 | 40 | 0.0 | 0.0 | 0.00 | 0.14 | 0.10 | 87 | 1009.2 |
| 20260510063235 | 59 | 40 | 0.0 | 0.0 | 0.00 | 0.14 | 0.10 | 87 | 1009.1 |
| 20260510062735 | 59 | 40 | 0.0 | 0.0 | 0.00 | 0.14 | 0.10 | 87 | 1009.1 |
| 20260510062235 | 59 | 40 | 0.0 | 0.0 | 0.00 | 0.14 | 0.10 | 88 | 1009.1 |
| 20260510061735 | 59 | 40 | 0.0 | 0.0 | 0.00 | 0.14 | 0.10 | 88 | 1009.0 |
| 20260510061235 | 59 | 40 | 0.0 | 0.0 | 0.00 | 0.14 | 0.10 | 88 | 1009.0 |
| 20260510060735 | 59 | 40 | 0.0 | 0.0 | 0.00 | 0.14 | 0.10 | 88 | 1009.0 |
| 20260510060235 | 59 | 40 | 0.0 | 0.0 | 0.00 | 0.14 | 0.10 | 88 | 1009.0 |
| 20260510055735 | 59 | 40 | 0.0 | 0.0 | 0.00 | 0.14 | 0.10 | 88 | 1008.9 |
| 20260510055235 | 59 | 40 | 0.0 | 0.0 | 0.00 | 0.14 | 0.10 | 88 | 1008.9 |
| 20260510054735 | 59 | 40 | 0.0 | 0.0 | 0.00 | 0.14 | 0.10 | 88 | 1008.9 |
| 20260510054235 | 59 | 40 | 0.0 | 0.0 | 0.00 | 0.14 | 0.10 | 88 | 1008.9 |
| 20260510053735 | 59 | 40 | 0.0 | 0.0 | 0.00 | 0.14 | 0.10 | 88 | 1008.8 |
| 20260510053235 | 59 | 40 | 0.0 | 0.0 | 0.00 | 0.14 | 0.10 | 88 | 1008.9 |
| 20260510052735 | 59 | 40 | 0.0 | 0.0 | 0.00 | 0.14 | 0.10 | 88 | 1009.0 |
| 20260510052235 | 59 | 40 | 0.0 | 0.0 | 0.00 | 0.14 | 0.10 | 88 | 1008.9 |
| 20260510051735 | 59 | 40 | 0.0 | 0.0 | 0.00 | 0.14 | 0.10 | 88 | 1008.9 |
| 20260510051235 | 59 | 40 | 0.0 | 0.0 | 0.00 | 0.14 | 0.10 | 88 | 1008.9 |
| 20260510050735 | 59 | 40 | 0.0 | 0.0 | 0.00 | 0.14 | 0.10 | 88 | 1008.8 |
| 20260510050235 | 58 | 40 | 0.0 | 4.0 | 0.00 | 0.14 | 0.10 | 88 | 1008.8 |
| 20260510045735 | 59 | 97 | 1.0 | 1.0 | 0.00 | 0.14 | 0.10 | 88 | 1008.8 |
| 20260510045235 | 59 | 112 | 0.0 | 0.0 | 0.00 | 0.14 | 0.10 | 88 | 1008.7 |
| 20260510044735 | 59 | 112 | 0.0 | 4.0 | 0.00 | 0.14 | 0.10 | 88 | 1008.6 |
| 20260510044235 | 59 | 68 | 2.0 | 5.0 | 0.00 | 0.14 | 0.10 | 87 | 1008.7 |
| 20260510043735 | 59 | 164 | 2.0 | 7.0 | 0.00 | 0.14 | 0.10 | 87 | 1008.8 |
| 20260510043235 | 59 | 143 | 0.0 | 8.0 | 0.00 | 0.14 | 0.10 | 87 | 1008.8 |
| 20260510042735 | 58 | 104 | 6.0 | 9.0 | 0.00 | 0.14 | 0.10 | 87 | 1008.9 |
| 20260510042235 | 58 | 101 | 4.0 | 11.0 | 0.00 | 0.14 | 0.10 | 87 | 1008.8 |
| 20260510041735 | 58 | 146 | 7.0 | 11.0 | 0.00 | 0.14 | 0.10 | 88 | 1008.8 |
| 20260510041235 | 58 | 63 | 8.0 | 9.0 | 0.00 | 0.14 | 0.10 | 88 | 1008.9 |
| 20260510040735 | 58 | 56 | 0.0 | 9.0 | 0.00 | 0.14 | 0.10 | 89 | 1009.0 |
| 20260510040235 | 58 | 60 | 6.0 | 9.0 | 0.00 | 0.14 | 0.10 | 90 | 1009.0 |
| 20260510035735 | 58 | 194 | 0.0 | 3.0 | 0.00 | 0.14 | 0.10 | 90 | 1009.0 |
| 20260510035235 | 58 | 60 | 1.0 | 6.0 | 0.00 | 0.14 | 0.10 | 90 | 1008.9 |
| 20260510034735 | 58 | 71 | 0.0 | 0.0 | 0.00 | 0.14 | 0.10 | 90 | 1009.0 |
| 20260510034235 | 58 | 71 | 0.0 | 4.0 | 0.00 | 0.14 | 0.10 | 90 | 1009.0 |
| 20260510033735 | 58 | 5 | 0.0 | 5.0 | 0.01 | 0.14 | 0.10 | 90 | 1009.0 |
| 20260510033235 | 58 | 60 | 3.0 | 6.0 | 0.01 | 0.14 | 0.10 | 90 | 1009.1 |
| 20260510032735 | 58 | 73 | 1.0 | 8.0 | 0.01 | 0.14 | 0.10 | 90 | 1009.2 |
| 20260510032235 | 58 | 85 | 2.0 | 5.0 | 0.01 | 0.14 | 0.10 | 90 | 1009.3 |
| 20260510031735 | 58 | 80 | 0.0 | 6.0 | 0.01 | 0.14 | 0.10 | 90 | 1009.3 |
| 20260510031235 | 58 | 84 | 0.0 | 5.0 | 0.01 | 0.14 | 0.10 | 90 | 1009.3 |
| 20260510030735 | 58 | 11 | 0.0 | 0.0 | 0.02 | 0.14 | 0.10 | 90 | 1009.5 |
| 20260510030235 | 58 | 11 | 0.0 | 4.0 | 0.02 | 0.14 | 0.10 | 90 | 1009.6 |
| 20260510025735 | 59 | 345 | 0.0 | 3.0 | 0.03 | 0.14 | 0.10 | 90 | 1009.6 |
| 20260510025235 | 59 | 61 | 2.0 | 5.0 | 0.04 | 0.14 | 0.10 | 90 | 1009.6 |
| 20260510024735 | 59 | 341 | 0.0 | 0.0 | 0.04 | 0.14 | 0.10 | 90 | 1009.7 |
| 20260510024235 | 59 | 341 | 0.0 | 0.0 | 0.04 | 0.14 | 0.10 | 90 | 1009.8 |
| 20260510023735 | 59 | 341 | 0.0 | 0.0 | 0.03 | 0.13 | 0.09 | 90 | 1009.9 |
| 20260510023235 | 59 | 341 | 0.0 | 0.0 | 0.03 | 0.13 | 0.09 | 90 | 1009.9 |
| 20260510022735 | 59 | 341 | 0.0 | 0.0 | 0.03 | 0.13 | 0.09 | 90 | 1010.0 |
| 20260510022235 | 59 | 341 | 0.0 | 3.0 | 0.03 | 0.13 | 0.09 | 90 | 1010.0 |
| 20260510021735 | 59 | 354 | 3.0 | 3.0 | 0.03 | 0.13 | 0.09 | 90 | 1010.1 |
| 20260510021235 | 59 | 112 | 0.0 | 0.0 | 0.03 | 0.13 | 0.09 | 90 | 1010.1 |
| 20260510020735 | 59 | 112 | 0.0 | 0.0 | 0.02 | 0.12 | 0.08 | 90 | 1010.0 |
| 20260510020235 | 59 | 112 | 0.0 | 0.0 | 0.02 | 0.12 | 0.08 | 89 | 1010.2 |
| 20260510015735 | 59 | 112 | 0.0 | 0.0 | 0.01 | 0.11 | 0.07 | 89 | 1010.3 |
| 20260510015235 | 59 | 112 | 0.0 | 0.0 | 0.00 | 0.10 | 0.06 | 89 | 1010.3 |
| 20260510014735 | 59 | 112 | 0.0 | 0.0 | 0.00 | 0.10 | 0.06 | 89 | 1010.3 |
| 20260510014235 | 59 | 112 | 0.0 | 0.0 | 0.00 | 0.10 | 0.06 | 89 | 1010.3 |
| 20260510013735 | 59 | 112 | 0.0 | 3.0 | 0.00 | 0.10 | 0.06 | 89 | 1010.3 |
| 20260510013235 | 59 | 125 | 2.0 | 2.0 | 0.00 | 0.10 | 0.06 | 89 | 1010.3 |
| 20260510012735 | 59 | 25 | 0.0 | 0.0 | 0.00 | 0.10 | 0.06 | 89 | 1010.2 |
| 20260510012235 | 59 | 25 | 0.0 | 0.0 | 0.00 | 0.10 | 0.06 | 89 | 1010.2 |
| 20260510011735 | 59 | 25 | 0.0 | 0.0 | 0.00 | 0.10 | 0.06 | 88 | 1010.2 |
| 20260510011235 | 59 | 25 | 0.0 | 0.0 | 0.00 | 0.10 | 0.06 | 88 | 1010.3 |
| 20260510010735 | 59 | 25 | 0.0 | 0.0 | 0.00 | 0.10 | 0.06 | 88 | 1010.3 |
| 20260510010235 | 59 | 25 | 0.0 | 0.0 | 0.00 | 0.10 | 0.06 | 88 | 1010.2 |
| 20260510005735 | 59 | 25 | 0.0 | 0.0 | 0.00 | 0.10 | 0.06 | 89 | 1010.1 |
| 20260510005235 | 59 | 25 | 0.0 | 0.0 | 0.00 | 0.10 | 0.06 | 88 | 1010.0 |
| 20260510004735 | 59 | 25 | 0.0 | 0.0 | 0.00 | 0.10 | 0.06 | 88 | 1010.1 |
| 20260510004235 | 59 | 25 | 0.0 | 0.0 | 0.00 | 0.10 | 0.06 | 88 | 1010.1 |
| 20260510003735 | 59 | 25 | 0.0 | 2.0 | 0.00 | 0.10 | 0.06 | 88 | 1010.1 |
| 20260510003235 | 59 | 14 | 0.0 | 0.0 | 0.00 | 0.10 | 0.06 | 88 | 1010.2 |
| 20260510002735 | 59 | 14 | 0.0 | 0.0 | 0.00 | 0.10 | 0.06 | 88 | 1010.2 |
| 20260510002235 | 59 | 14 | 0.0 | 0.0 | 0.01 | 0.10 | 0.06 | 88 | 1010.3 |
| 20260510001735 | 59 | 14 | 0.0 | 0.0 | 0.01 | 0.10 | 0.06 | 88 | 1010.2 |
| 20260510001235 | 59 | 14 | 0.0 | 0.0 | 0.02 | 0.10 | 0.06 | 88 | 1010.2 |
| 20260510000735 | 59 | 14 | 0.0 | 1.0 | 0.03 | 0.10 | 0.06 | 88 | 1010.3 |
| 20260510000235 | 59 | 14 | 0.0 | 4.0 | 0.03 | 0.10 | 0.06 | 88 | 1010.3 |
| 20260509235735 | 59 | 18 | 0.0 | 3.0 | 0.04 | 0.10 | 0.06 | 88 | 1010.4 |
| 20260509235235 | 59 | 37 | 0.0 | 0.0 | 0.04 | 0.10 | 0.06 | 88 | 1010.3 |
| 20260509234735 | 59 | 37 | 0.0 | 5.0 | 0.04 | 0.10 | 0.06 | 88 | 1010.1 |
| 20260509234235 | 59 | 28 | 0.0 | 3.0 | 0.04 | 0.10 | 0.06 | 88 | 1010.0 |
| 20260509233735 | 59 | 46 | 0.0 | 8.0 | 0.04 | 0.10 | 0.06 | 88 | 1009.9 |
| 20260509233235 | 58 | 142 | 8.0 | 8.0 | 0.05 | 0.10 | 0.06 | 88 | 1010.0 |
| 20260509232735 | 59 | 73 | 4.0 | 8.0 | 0.05 | 0.10 | 0.06 | 88 | 1010.1 |
| 20260509232235 | 59 | 60 | 7.0 | 7.0 | 0.05 | 0.09 | 0.05 | 87 | 1010.3 |
| 20260509231735 | 59 | 88 | 3.0 | 4.0 | 0.05 | 0.09 | 0.05 | 87 | 1010.5 |
| 20260509231235 | 59 | 35 | 0.0 | 5.0 | 0.04 | 0.08 | 0.04 | 86 | 1010.6 |
| 20260509230735 | 60 | 151 | 0.0 | 5.0 | 0.03 | 0.07 | 0.03 | 86 | 1010.7 |
| 20260509230235 | 60 | 40 | 2.0 | 4.0 | 0.03 | 0.07 | 0.03 | 86 | 1010.8 |
| 20260509225735 | 60 | 84 | 3.0 | 5.0 | 0.02 | 0.06 | 0.02 | 85 | 1010.8 |
| 20260509225235 | 60 | 46 | 1.0 | 4.0 | 0.03 | 0.06 | 0.02 | 85 | 1010.9 |
| 20260509224735 | 60 | 59 | 2.0 | 3.0 | 0.03 | 0.06 | 0.02 | 84 | 1011.0 |
| 20260509224235 | 61 | 73 | 1.0 | 2.0 | 0.03 | 0.06 | 0.02 | 83 | 1011.1 |
| 20260509223735 | 60 | 9 | 0.0 | 0.0 | 0.03 | 0.06 | 0.02 | 83 | 1011.4 |
| 20260509223235 | 60 | 9 | 0.0 | 1.0 | 0.03 | 0.05 | 0.01 | 83 | 1011.4 |
| 20260509222735 | 61 | 111 | 1.0 | 1.0 | 0.03 | 0.05 | 0.01 | 82 | 1011.3 |
| 20260509222235 | 61 | 111 | 0.0 | 0.0 | 0.03 | 0.04 | 0.00 | 82 | 1011.4 |
| 20260509221735 | 61 | 111 | 0.0 | 0.0 | 0.03 | 0.04 | 0.00 | 82 | 1011.3 |
| 20260509221235 | 61 | 111 | 0.0 | 0.0 | 0.04 | 0.04 | 0.00 | 82 | 1011.2 |
| 20260509220735 | 61 | 111 | 0.0 | 0.0 | 0.04 | 0.04 | 0.00 | 81 | 1011.2 |
| 20260509220235 | 61 | 111 | 0.0 | 4.0 | 0.04 | 0.04 | 0.00 | 81 | 1011.1 |
| 20260509215735 | 62 | 60 | 0.0 | 0.0 | 0.04 | 0.04 | 0.04 | 80 | 1010.8 |
| 20260509215235 | 61 | 60 | 0.0 | 3.0 | 0.03 | 0.03 | 0.03 | 80 | 1010.7 |
| 20260509214735 | 62 | 129 | 0.0 | 4.0 | 0.03 | 0.03 | 0.03 | 79 | 1010.8 |
| 20260509214235 | 63 | 43 | 1.0 | 5.0 | 0.03 | 0.03 | 0.03 | 78 | 1010.9 |
| 20260509213735 | 63 | 61 | 1.0 | 7.0 | 0.03 | 0.03 | 0.03 | 76 | 1011.0 |
| 20260509213235 | 63 | 97 | 3.0 | 6.0 | 0.02 | 0.02 | 0.02 | 73 | 1011.1 |
| 20260509212735 | 64 | 53 | 0.0 | 0.0 | 0.02 | 0.02 | 0.02 | 70 | 1011.1 |
| 20260509212235 | 64 | 53 | 0.0 | 0.0 | 0.01 | 0.01 | 0.01 | 69 | 1011.1 |
| 20260509211735 | 65 | 53 | 0.0 | 0.0 | 0.01 | 0.01 | 0.01 | 68 | 1011.1 |
| 20260509211235 | 65 | 53 | 0.0 | 0.0 | 0.00 | 0.00 | 0.00 | 66 | 1011.0 |
| 20260509210735 | 65 | 53 | 0.0 | 0.0 | 0.00 | 0.00 | 0.00 | 64 | 1010.8 |
| 20260509210235 | 65 | 53 | 0.0 | 7.0 | 0.00 | 0.00 | 0.00 | 62 | 1010.8 |
| 20260509205735 | 66 | 300 | 0.0 | 0.0 | 0.00 | 0.00 | 0.00 | 60 | 1010.9 |
| 20260509205235 | 66 | 300 | 0.0 | 0.0 | 0.00 | 0.00 | 0.00 | 58 | 1010.8 |
| 20260509204735 | 67 | 300 | 0.0 | 0.0 | 0.00 | 0.00 | 0.00 | 57 | 1010.9 |
| 20260509204235 | 67 | 300 | 0.0 | 5.0 | 0.00 | 0.00 | 0.00 | 55 | 1010.9 |
| 20260509203735 | 67 | 300 | 0.0 | 8.0 | 0.00 | 0.00 | 0.00 | 53 | 1011.0 |
| 20260509203235 | 67 | 300 | 0.0 | 9.0 | 0.00 | 0.00 | 0.00 | 52 | 1010.8 |
| 20260509202735 | 67 | 163 | 0.0 | 3.0 | 0.00 | 0.00 | 0.00 | 51 | 1010.8 |
| 20260509202235 | 68 | 300 | 0.0 | 4.0 | 0.00 | 0.00 | 0.00 | 51 | 1010.9 |
| 20260509201736 | 68 | 165 | 0.0 | 0.0 | 0.00 | 0.00 | 0.00 | 51 | 1010.9 |
| 20260509201235 | 68 | 165 | 0.0 | 0.0 | 0.00 | 0.00 | 0.00 | 51 | 1010.8 |
| 20260509200735 | 68 | 165 | 0.0 | 0.0 | 0.00 | 0.00 | 0.00 | 50 | 1010.7 |
| 20260509200235 | 68 | 165 | 0.0 | 0.0 | 0.00 | 0.00 | 0.00 | 50 | 1010.6 |
| 20260509195736 | 68 | 165 | 0.0 | 0.0 | 0.00 | 0.00 | 0.00 | 49 | 1010.6 |
| 20260509195236 | 68 | 165 | 0.0 | 0.0 | 0.00 | 0.00 | 0.00 | 49 | 1010.5 |
| 20260509194736 | 68 | 165 | 0.0 | 2.0 | 0.00 | 0.00 | 0.00 | 49 | 1010.5 |
| 20260509194236 | 68 | 127 | 1.0 | 7.0 | 0.00 | 0.00 | 0.00 | 49 | 1010.5 |
| 20260509193736 | 68 | 99 | 3.0 | 7.0 | 0.00 | 0.00 | 0.00 | 49 | 1010.5 |
| 20260509193236 | 68 | 97 | 0.0 | 4.0 | 0.00 | 0.00 | 0.00 | 49 | 1010.4 |
| 20260509192736 | 68 | 170 | 0.0 | 0.0 | 0.00 | 0.00 | 0.00 | 49 | 1010.4 |
| 20260509192236 | 68 | 170 | 0.0 | 0.0 | 0.00 | 0.00 | 0.00 | 48 | 1010.4 |
| 20260509191736 | 68 | 170 | 0.0 | 0.0 | 0.00 | 0.00 | 0.00 | 48 | 1010.3 |
| 20260509191236 | 68 | 170 | 0.0 | 0.0 | 0.00 | 0.00 | 0.00 | 48 | 1010.3 |
| 20260509190736 | 68 | 170 | 0.0 | 0.0 | 0.00 | 0.00 | 0.00 | 47 | 1010.3 |
| 20260509190236 | 69 | 170 | 0.0 | 0.0 | 0.00 | 0.00 | 0.00 | 47 | 1010.3 |
| 20260509185736 | 69 | 170 | 0.0 | 0.0 | 0.00 | 0.00 | 0.00 | 46 | 1010.3 |
| 20260509185236 | 69 | 170 | 0.0 | 0.0 | 0.00 | 0.00 | 0.00 | 46 | 1010.3 |
| 20260509184736 | 69 | 170 | 0.0 | 0.0 | 0.00 | 0.00 | 0.00 | 45 | 1010.3 |
| 20260509184236 | 69 | 170 | 0.0 | 0.0 | 0.00 | 0.00 | 0.00 | 45 | 1010.3 |
| 20260509183736 | 69 | 170 | 0.0 | 0.0 | 0.00 | 0.00 | 0.00 | 44 | 1010.2 |
| 20260509183236 | 69 | 170 | 0.0 | 0.0 | 0.00 | 0.00 | 0.00 | 44 | 1010.2 |
| 20260509182736 | 70 | 170 | 0.0 | 0.0 | 0.00 | 0.00 | 0.00 | 43 | 1010.1 |
| 20260509182236 | 70 | 170 | 0.0 | 0.0 | 0.00 | 0.00 | 0.00 | 42 | 1010.1 |
| 20260509181736 | 70 | 170 | 0.0 | 0.0 | 0.00 | 0.00 | 0.00 | 41 | 1010.1 |
| 20260509181236 | 70 | 170 | 0.0 | 0.0 | 0.00 | 0.00 | 0.00 | 40 | 1010.0 |
| 20260509180736 | 70 | 170 | 0.0 | 0.0 | 0.00 | 0.00 | 0.00 | 40 | 1010.0 |
| 20260509180236 | 70 | 170 | 0.0 | 0.0 | 0.00 | 0.00 | 0.00 | 39 | 1009.9 |
| 20260509175736 | 70 | 170 | 0.0 | 0.0 | 0.00 | 0.00 | 0.00 | 38 | 1009.8 |
| 20260509175236 | 70 | 170 | 0.0 | 0.0 | 0.00 | 0.00 | 0.00 | 38 | 1009.7 |
| 20260509174736 | 70 | 170 | 0.0 | 0.0 | 0.00 | 0.00 | 0.00 | 38 | 1009.8 |
| 20260509174236 | 71 | 170 | 0.0 | 0.0 | 0.00 | 0.00 | 0.00 | 37 | 1009.8 |
| 20260509173736 | 71 | 170 | 0.0 | 0.0 | 0.00 | 0.00 | 0.00 | 37 | 1009.8 |
| 20260509173236 | 71 | 170 | 0.0 | 0.0 | 0.00 | 0.00 | 0.00 | 37 | 1009.9 |
| 20260509172736 | 71 | 170 | 0.0 | 0.0 | 0.00 | 0.00 | 0.00 | 36 | 1009.9 |
| 20260509172236 | 72 | 170 | 0.0 | 0.0 | 0.00 | 0.00 | 0.00 | 37 | 1010.0 |
| 20260509171736 | 72 | 170 | 0.0 | 0.0 | 0.00 | 0.00 | 0.00 | 37 | 1009.9 |
| 20260509171236 | 72 | 170 | 0.0 | 0.0 | 0.00 | 0.00 | 0.00 | 36 | 1009.9 |
| 20260509170736 | 72 | 170 | 0.0 | 0.0 | 0.00 | 0.00 | 0.00 | 36 | 1009.8 |
| 20260509170236 | 72 | 170 | 0.0 | 0.0 | 0.00 | 0.00 | 0.00 | 35 | 1009.9 |
| 20260509165736 | 72 | 170 | 0.0 | 0.0 | 0.00 | 0.00 | 0.00 | 35 | 1009.9 |
| 20260509165236 | 72 | 170 | 0.0 | 0.0 | 0.00 | 0.00 | 0.00 | 35 | 1009.9 |
| 20260509164736 | 72 | 170 | 0.0 | 0.0 | 0.00 | 0.00 | 0.00 | 34 | 1010.1 |
| 20260509164236 | 72 | 170 | 0.0 | 0.0 | 0.00 | 0.00 | 0.00 | 33 | 1010.1 |
| 20260509163736 | 73 | 170 | 0.0 | 0.0 | 0.00 | 0.00 | 0.00 | 33 | 1010.1 |
| 20260509163236 | 73 | 170 | 0.0 | 0.0 | 0.00 | 0.00 | 0.00 | 33 | 1010.1 |
| 20260509162736 | 73 | 170 | 0.0 | 0.0 | 0.00 | 0.00 | 0.00 | 32 | 1010.1 |
| 20260509162236 | 73 | 170 | 0.0 | 0.0 | 0.00 | 0.00 | 0.00 | 32 | 1010.1 |
| 20260509161736 | 73 | 170 | 0.0 | 0.0 | 0.00 | 0.00 | 0.00 | 32 | 1010.0 |
| 20260509161236 | 73 | 170 | 0.0 | 10.0 | 0.00 | 0.00 | 0.00 | 31 | 1010.0 |
| 20260509160736 | 73 | 196 | 1.0 | 11.0 | 0.00 | 0.00 | 0.00 | 32 | 1010.0 |
| 20260509160236 | 73 | 109 | 0.0 | 8.0 | 0.00 | 0.00 | 0.00 | 32 | 1010.0 |
| 20260509155736 | 73 | 178 | 0.0 | 0.0 | 0.00 | 0.00 | 0.00 | 32 | 1010.1 |
| 20260509155236 | 72 | 178 | 0.0 | 0.0 | 0.00 | 0.00 | 0.00 | 31 | 1010.1 |
| 20260509154736 | 73 | 178 | 0.0 | 0.0 | 0.00 | 0.00 | 0.00 | 30 | 1010.2 |
| 20260509154236 | 72 | 178 | 0.0 | 0.0 | 0.00 | 0.00 | 0.00 | 30 | 1010.1 |
| 20260509153736 | 72 | 178 | 0.0 | 0.0 | 0.00 | 0.00 | 0.00 | 30 | 1010.2 |
| 20260509153236 | 72 | 178 | 0.0 | 0.0 | 0.00 | 0.00 | 0.00 | 30 | 1010.3 |
| 20260509152736 | 73 | 178 | 0.0 | 0.0 | 0.00 | 0.00 | 0.00 | 30 | 1010.4 |
| 20260509152236 | 72 | 178 | 0.0 | 0.0 | 0.00 | 0.00 | 0.00 | 31 | 1010.5 |
| 20260509151736 | 73 | 178 | 0.0 | 8.0 | 0.00 | 0.00 | 0.00 | 31 | 1010.5 |
| 20260509151236 | 73 | 178 | 0.0 | 15.0 | 0.00 | 0.00 | 0.00 | 31 | 1010.5 |
| 20260509150736 | 73 | 136 | 0.0 | 0.0 | 0.00 | 0.00 | 0.00 | 32 | 1010.5 |
| 20260509150236 | 73 | 136 | 0.0 | 9.0 | 0.00 | 0.00 | 0.00 | 33 | 1010.5 |
| 20260509145736 | 74 | 185 | 0.0 | 0.0 | 0.00 | 0.00 | 0.00 | 33 | 1010.6 |
| 20260509145236 | 74 | 185 | 0.0 | 12.0 | 0.00 | 0.00 | 0.00 | 34 | 1010.6 |
| 20260509144736 | 74 | 142 | 4.0 | 12.0 | 0.00 | 0.00 | 0.00 | 33 | 1010.8 |
| 20260509144236 | 74 | 75 | 5.0 | 10.0 | 0.00 | 0.00 | 0.00 | 34 | 1010.8 |
| 20260509143736 | 74 | 16 | 2.0 | 12.0 | 0.00 | 0.00 | 0.00 | 34 | 1010.9 |
| 20260509143236 | 74 | 161 | 8.0 | 10.0 | 0.00 | 0.00 | 0.00 | 33 | 1010.9 |
| 20260509142736 | 73 | 147 | 8.0 | 15.0 | 0.00 | 0.00 | 0.00 | 34 | 1010.9 |
| 20260509142236 | 74 | 85 | 8.0 | 14.0 | 0.00 | 0.00 | 0.00 | 35 | 1010.9 |
| 20260509141736 | 74 | 66 | 2.0 | 14.0 | 0.00 | 0.00 | 0.00 | 33 | 1011.0 |
| 20260509141236 | 75 | 146 | 5.0 | 14.0 | 0.00 | 0.00 | 0.00 | 34 | 1011.0 |
| 20260509140736 | 75 | 125 | 8.0 | 15.0 | 0.00 | 0.00 | 0.00 | 34 | 1011.0 |
| 20260509140236 | 74 | 170 | 2.0 | 11.0 | 0.00 | 0.00 | 0.00 | 34 | 1011.0 |
| 20260509135736 | 74 | 212 | 9.0 | 12.0 | 0.00 | 0.00 | 0.00 | 33 | 1011.2 |
| 20260509135236 | 74 | 300 | 1.0 | 15.0 | 0.00 | 0.00 | 0.00 | 33 | 1011.3 |
| 20260509134736 | 75 | 300 | 0.0 | 10.0 | 0.00 | 0.00 | 0.00 | 33 | 1011.4 |
| 20260509134236 | 74 | 164 | 2.0 | 12.0 | 0.00 | 0.00 | 0.00 | 33 | 1011.5 |
| 20260509133736 | 74 | 300 | 2.0 | 9.0 | 0.00 | 0.00 | 0.00 | 34 | 1011.5 |
| 20260509133236 | 74 | 205 | 1.0 | 9.0 | 0.00 | 0.00 | 0.00 | 34 | 1011.6 |
| 20260509132736 | 74 | 136 | 3.0 | 10.0 | 0.00 | 0.00 | 0.00 | 35 | 1011.7 |
| 20260509132236 | 74 | 156 | 2.0 | 11.0 | 0.00 | 0.00 | 0.00 | 34 | 1011.7 |
| 20260509131736 | 73 | 137 | 11.0 | 14.0 | 0.00 | 0.00 | 0.00 | 34 | 1011.8 |
| 20260509131236 | 73 | 129 | 11.0 | 15.0 | 0.00 | 0.00 | 0.00 | 34 | 1011.9 |
| 20260509130736 | 74 | 300 | 0.0 | 9.0 | 0.00 | 0.00 | 0.00 | 37 | 1011.9 |
| 20260509130236 | 74 | 205 | 3.0 | 13.0 | 0.00 | 0.00 | 0.00 | 35 | 1011.8 |
| 20260509125736 | 75 | 206 | 3.0 | 6.0 | 0.00 | 0.00 | 0.00 | 38 | 1012.0 |
| 20260509125236 | 75 | 300 | 0.0 | 8.0 | 0.00 | 0.00 | 0.00 | 37 | 1012.0 |
| 20260509124736 | 74 | 230 | 8.0 | 11.0 | 0.00 | 0.00 | 0.00 | 36 | 1012.0 |
| 20260509124236 | 75 | 300 | 0.0 | 11.0 | 0.00 | 0.00 | 0.00 | 36 | 1012.1 |
| 20260509123736 | 76 | 300 | 1.0 | 10.0 | 0.00 | 0.00 | 0.00 | 35 | 1012.2 |
| 20260509123236 | 76 | 199 | 0.0 | 11.0 | 0.00 | 0.00 | 0.00 | 34 | 1012.2 |
| 20260509122736 | 76 | 233 | 5.0 | 7.0 | 0.00 | 0.00 | 0.00 | 34 | 1012.2 |
| 20260509122236 | 76 | 213 | 0.0 | 12.0 | 0.00 | 0.00 | 0.00 | 34 | 1012.1 |
| 20260509121736 | 76 | 300 | 4.0 | 8.0 | 0.00 | 0.00 | 0.00 | 35 | 1012.2 |
| 20260509121236 | 76 | 123 | 0.0 | 10.0 | 0.00 | 0.00 | 0.00 | 35 | 1012.2 |
| 20260509120736 | 77 | 300 | 0.0 | 13.0 | 0.00 | 0.00 | 0.00 | 32 | 1012.2 |
| 20260509120236 | 77 | 168 | 0.0 | 11.0 | 0.00 | 0.00 | 0.00 | 32 | 1012.2 |
| 20260509115736 | 77 | 300 | 0.0 | 9.0 | 0.00 | 0.00 | 0.00 | 32 | 1012.3 |
| 20260509115236 | 76 | 300 | 0.0 | 9.0 | 0.00 | 0.00 | 0.00 | 33 | 1012.2 |
| 20260509114736 | 76 | 300 | 0.0 | 7.0 | 0.00 | 0.00 | 0.00 | 35 | 1012.3 |
| 20260509114236 | 75 | 300 | 0.0 | 9.0 | 0.00 | 0.00 | 0.00 | 37 | 1012.5 |
| 20260509113736 | 75 | 225 | 0.0 | 12.0 | 0.00 | 0.00 | 0.00 | 36 | 1012.6 |
| 20260509113236 | 75 | 182 | 7.0 | 11.0 | 0.00 | 0.00 | 0.00 | 36 | 1012.6 |
| 20260509112736 | 75 | 150 | 0.0 | 8.0 | 0.00 | 0.00 | 0.00 | 36 | 1012.7 |
| 20260509112236 | 75 | 184 | 7.0 | 9.0 | 0.00 | 0.00 | 0.00 | 38 | 1012.7 |
| 20260509111736 | 75 | 300 | 0.0 | 8.0 | 0.00 | 0.00 | 0.00 | 40 | 1012.7 |
| 20260509111236 | 74 | 327 | 0.0 | 5.0 | 0.00 | 0.00 | 0.00 | 41 | 1012.9 |
| 20260509110736 | 74 | 300 | 0.0 | 11.0 | 0.00 | 0.00 | 0.00 | 41 | 1013.0 |
| 20260509110236 | 74 | 219 | 0.0 | 9.0 | 0.00 | 0.00 | 0.00 | 38 | 1013.0 |
| 20260509105736 | 75 | 210 | 0.0 | 0.0 | 0.00 | 0.00 | 0.00 | 36 | 1013.2 |
| 20260509105236 | 75 | 210 | 0.0 | 9.0 | 0.00 | 0.00 | 0.00 | 36 | 1013.2 |
| 20260509104736 | 75 | 300 | 1.0 | 8.0 | 0.00 | 0.00 | 0.00 | 36 | 1013.3 |
| 20260509104236 | 75 | 109 | 3.0 | 6.0 | 0.00 | 0.00 | 0.00 | 36 | 1013.2 |
| 20260509103736 | 75 | 300 | 0.0 | 7.0 | 0.00 | 0.00 | 0.00 | 36 | 1013.3 |
| 20260509103236 | 75 | 300 | 0.0 | 9.0 | 0.00 | 0.00 | 0.00 | 36 | 1013.4 |
| 20260509102736 | 75 | 300 | 0.0 | 10.0 | 0.00 | 0.00 | 0.00 | 35 | 1013.4 |
| 20260509102236 | 75 | 0 | 0.0 | 3.0 | 0.00 | 0.00 | 0.00 | 33 | 1013.4 |
| 20260509101736 | 75 | 300 | 0.0 | 2.0 | 0.00 | 0.00 | 0.00 | 31 | 1013.5 |
| 20260509101236 | 75 | 167 | 0.0 | 7.0 | 0.00 | 0.00 | 0.00 | 31 | 1013.5 |
| 20260509100736 | 75 | 188 | 4.0 | 7.0 | 0.00 | 0.00 | 0.00 | 31 | 1013.5 |
| 20260509100236 | 74 | 300 | 3.0 | 3.0 | 0.00 | 0.00 | 0.00 | 31 | 1013.5 |
| 20260509095736 | 74 | 201 | 0.0 | 7.0 | 0.00 | 0.00 | 0.00 | 31 | 1013.5 |
| 20260509095236 | 73 | 206 | 0.0 | 9.0 | 0.00 | 0.00 | 0.00 | 32 | 1013.6 |
| 20260509094736 | 73 | 59 | 6.0 | 7.0 | 0.00 | 0.00 | 0.00 | 31 | 1013.6 |
| 20260509094236 | 73 | 300 | 0.0 | 11.0 | 0.00 | 0.00 | 0.00 | 31 | 1013.7 |
| 20260509093736 | 74 | 172 | 0.0 | 9.0 | 0.00 | 0.00 | 0.00 | 30 | 1013.6 |
| 20260509093236 | 74 | 215 | 0.0 | 8.0 | 0.00 | 0.00 | 0.00 | 31 | 1013.6 |
| 20260509092736 | 73 | 300 | 0.0 | 9.0 | 0.00 | 0.00 | 0.00 | 31 | 1013.6 |
| 20260509092236 | 73 | 250 | 0.0 | 7.0 | 0.00 | 0.00 | 0.00 | 32 | 1013.7 |
| 20260509091736 | 72 | 300 | 0.0 | 0.0 | 0.00 | 0.00 | 0.00 | 32 | 1013.7 |
| 20260509091237 | 72 | 300 | 0.0 | 8.0 | 0.00 | 0.00 | 0.00 | 32 | 1013.8 |
| 20260509090737 | 72 | 300 | 0.0 | 0.0 | 0.00 | 0.00 | 0.00 | 31 | 1013.9 |
| 20260509090237 | 71 | 300 | 0.0 | 0.0 | 0.00 | 0.00 | 0.00 | 33 | 1014.0 |
| 20260509085737 | 71 | 300 | 0.0 | 0.0 | 0.00 | 0.00 | 0.00 | 33 | 1014.1 |
| 20260509085237 | 72 | 300 | 0.0 | 0.0 | 0.00 | 0.00 | 0.00 | 32 | 1014.2 |
| 20260509084737 | 72 | 300 | 0.0 | 0.0 | 0.00 | 0.00 | 0.00 | 32 | 1014.1 |
| 20260509084237 | 71 | 300 | 0.0 | 3.0 | 0.00 | 0.00 | 0.00 | 34 | 1014.2 |
| 20260509083737 | 71 | 300 | 0.0 | 9.0 | 0.00 | 0.00 | 0.00 | 34 | 1014.3 |
| 20260509083237 | 71 | 133 | 0.0 | 8.0 | 0.00 | 0.00 | 0.00 | 36 | 1014.3 |
| 20260509082737 | 70 | 133 | 0.0 | 9.0 | 0.00 | 0.00 | 0.00 | 36 | 1014.3 |
| 20260509082237 | 70 | 202 | 0.0 | 9.0 | 0.00 | 0.00 | 0.00 | 36 | 1014.3 |
| 20260509081737 | 70 | 300 | 0.0 | 0.0 | 0.00 | 0.00 | 0.00 | 37 | 1014.4 |
| 20260509081237 | 70 | 300 | 0.0 | 9.0 | 0.00 | 0.00 | 0.00 | 37 | 1014.5 |
| 20260509080737 | 69 | 171 | 0.0 | 9.0 | 0.00 | 0.00 | 0.00 | 37 | 1014.4 |
| 20260509080237 | 68 | 122 | 0.0 | 6.0 | 0.00 | 0.00 | 0.00 | 38 | 1014.5 |
| 20260509075737 | 68 | 219 | 5.0 | 9.0 | 0.00 | 0.00 | 0.00 | 36 | 1014.5 |
| 20260509075237 | 68 | 187 | 7.0 | 7.0 | 0.00 | 0.00 | 0.00 | 37 | 1014.5 |
| 20260509074737 | 68 | 300 | 0.0 | 8.0 | 0.00 | 0.00 | 0.00 | 38 | 1014.5 |
| 20260509074237 | 68 | 300 | 2.0 | 9.0 | 0.00 | 0.00 | 0.00 | 37 | 1014.6 |
| 20260509073737 | 68 | 300 | 0.0 | 9.0 | 0.00 | 0.00 | 0.00 | 38 | 1014.5 |
| 20260509073237 | 68 | 300 | 9.0 | 9.0 | 0.00 | 0.00 | 0.00 | 36 | 1014.5 |
| 20260509072737 | 69 | 300 | 0.0 | 1.0 | 0.00 | 0.00 | 0.00 | 43 | 1014.5 |
| 20260509072237 | 68 | 300 | 0.0 | 0.0 | 0.00 | 0.00 | 0.00 | 46 | 1014.5 |
| 20260509071737 | 68 | 300 | 0.0 | 0.0 | 0.00 | 0.00 | 0.00 | 47 | 1014.6 |
| 20260509071237 | 67 | 300 | 0.0 | 0.0 | 0.00 | 0.00 | 0.00 | 49 | 1014.5 |
| 20260509070737 | 66 | 300 | 0.0 | 0.0 | 0.00 | 0.00 | 0.00 | 50 | 1014.4 |
| 20260509070237 | 65 | 300 | 0.0 | 0.0 | 0.00 | 0.00 | 0.00 | 52 | 1014.5 |